Hourly Data Report for October 03, 2016

All times are specified in Local Standard Time (LST). Add 1 hour to adjust for Daylight Saving Time where and when it is observed.

ST LEONARD CS
NEW BRUNSWICK

47°09'28.050" N
67°49'55.014" W
245.00 m
810I001
71019
WIY

Download Data

Hourly Data (October 2016)
Hourly Data Report for October 3, 2016
Temp Definition
°C
Dew Point Temp Definition
°C
Rel Hum Definition
%
Wind Dir Definition
10's deg

Wind Spd Definition
km/h
Visibility Definition
km
Stn Press Definition
kPa
Hmdx Definition


Wind Chill Definition


Weather Definition


TIME
00:00 9.2 7.2 87 19 7   98.32     LegendNANA
01:00 8.7 7.1 90 22 5   98.30     LegendNANA
02:00 9.4 8.2 93 23 7   98.28     LegendNANA
03:00 8.5 7.3 93 29 3   98.26     LegendNANA
04:00 8.8 7.7 93 34 8   98.32     LegendNANA
05:00 8.7 7.5 92 31 9   98.39     LegendNANA
06:00 8.3 6.9 91 33 4   98.51     LegendNANA
07:00 7.9 6.2 89 35 5   98.60     LegendNANA
08:00 9.1 6.1 82 1 11   98.69     LegendNANA
09:00 9.2 4.3 71 1 18   98.79     LegendNANA
10:00 9.4 3.1 65 3 14   98.89     LegendNANA
11:00 10.2 2.9 60 4 14   98.97     LegendNANA
12:00 10.5 0.9 51 1 13   99.00     LegendNANA
13:00 11.5 1.0 48 1 11   99.03     LegendNANA
14:00 12.8 1.6 46 36 11   99.06     LegendNANA
15:00 12.6 -0.2 41 34 12   99.07     LegendNANA
16:00 12.8 0.8 44 35 9   99.10     LegendNANA
17:00 11.8 -0.2 43 4 7   99.16     LegendNANA
18:00 9.4 1.2 57 3 8   99.24     LegendNANA
19:00 5.0 1.6 78 4 7   99.31     LegendNANA
20:00 4.8 0.7 75 3 8   99.38     LegendNANA
21:00 4.4 0.2 74 2 10   99.47     LegendNANA
22:00 3.3 -0.1 78 3 10   99.52     LegendNANA
23:00 0.3 -1.1 90 30 5   99.58     LegendNANA

Notes on Data Quality.

Legend

  • E = Estimated
  • M = Missing
  • NA = Not Available
  • ‡ = Partner data that is not subject to review by the National Climate Archives
Date modified: